Regional Weather Roundup
Issued by NWS Midland/Odessa, TX

Skip options and go directly to product.
Home | Oldest Version | Previous Version | Current Version | All | Text Only | Save Text | Print | Product List | Glossary Off

Skip product version selection by date and time.   

644
ASUS44 KMAF 292310
RWRMAF
MIDLAND AREA WEATHER ROUNDUP
NATIONAL WEATHER SERVICE MIDLAND TX
600 PM CDT SAT AUG 29 2015

...IN SOUTHWEST TEXAS AND SOUTHEAST NEW MEXICO...

CITY           SKY/WX    TMP DP  RH WIND       PRES   REMARKS
ALPINE         MOSUNNY   82  46  27 NE6       30.19F
ANDREWS        PTSUNNY   82  53  35 SE9       30.11F
ARTESIA        SUNNY     90  54  29 S7        30.08F
BIG SPRING     CLOUDY    78  59  53 NE3       30.11F
CARLSBAD       SUNNY     90  54  29 VRB6      30.06F
DRYDEN           N/A     85  61  44 N8        30.02F
FORT STOCKTON  CLOUDY    82  54  37 E10       30.08F
GUAD PASS      MOSUNNY   79  53  40 E23       30.20F
HOBBS          MOSUNNY   81  55  41 E6        30.14S
MARFA          CLOUDY    81  48  32 NE10      30.17F
MIDLAND AIRPK  CLOUDY    82  53  36 E8        30.09F
MIDLAND INTL   CLOUDY    80  58  46 E10       30.08F
ODESSA         CLOUDY    80  56  43 E9        30.09F
PECOS          SUNNY     86  52  30 NE8       30.05F
PRESIDIO       NOT AVBL
SEMINOLE       MOSUNNY   82  56  40 SE9       30.12F
SNYDER         CLOUDY    80  57  45 E7        30.09F
WINK           CLOUDY    84  51  31 SE10      30.06F
$$
...OTHER STATIONS IN TEXAS...

CITY           SKY/WX    TMP DP  RH WIND       PRES   REMARKS
ABILENE        LGT RAIN  76  61  59 NE5       30.06F
AMARILLO       PTSUNNY   86  55  34 NE13      30.13S
AUSTIN         PTSUNNY   92  60  34 VRB6      29.95F
BROWNSVILLE    MOSUNNY   87  71  58 SE15      29.93S
CORPUS CHRISTI MOSUNNY   89  63  41 E16       29.95S
DALLAS FTW     MOSUNNY   93  61  34 S13       29.91F
DEL RIO        MOSUNNY   96  53  23 SE8       29.93F
EL PASO        FAIR      91  54  28 E9        30.05F
HOUSTON INT    MOSUNNY   87  64  46 SE13      29.98R
LUBBOCK        PTSUNNY   83  50  31 S14       30.11F
SAN ANGELO     CLOUDY    87  58  37 NE10      30.04S
SAN ANTONIO    PTSUNNY   93  60  33 VRB6      29.96F
WACO           PTSUNNY   94  61  33 S7        29.94F
WICHITA FALLS  NOT AVBL
$$
...OTHER LOCATIONS IN NEW MEXICO...

CITY           SKY/WX    TMP DP  RH WIND       PRES   REMARKS
ALAMAGORDO     PTSUNNY   72  64  78 E3        30.12F
ALBUQUERQUE    PTSUNNY   84  42  22 SE17      30.19F
CANNON AFB     PTSUNNY   82  57  43 SE8       30.15S
CLOVIS         CLOUDY    81  61  50 SE10      30.16F
HOLLOMAN AFB   MOSUNNY   78  61  55 SE9       30.07F
ROSWELL        SUNNY     89  55  31 E9        30.08S
RUIDOSO        PTSUNNY   75  50  41 MISG      30.32S
SANTA FE       LGT RAIN  78  44  29 NE5       30.29F
TRUTH OR CONSE FAIR      92  43  18 VRB6      30.10F
TUCUMCARI      MOSUNNY   89  50  26 NE13      30.11F
$$

USA.gov is the U.S. government's official web portal to all federal, state and local government web resources and services.